Stations météo

Publicité
Figari, France (7780): Température de l'air & dewpoint: 14.08.2018 22:00:00 - 20.08.2018 22:00:00 (CEST)Figari, France (7780): Température de l'air 5cm: 14.08.2018 22:00:00 - 20.08.2018 22:00:00 (CEST)Figari, France (7780): Vitesse du vent & gusts: 14.08.2018 22:00:00 - 20.08.2018 22:00:00 (CEST)Figari, France (7780): Direction du vent: 14.08.2018 22:00:00 - 20.08.2018 22:00:00 (CEST)Figari, France (7780): reduced air pressure: 14.08.2018 22:00:00 - 20.08.2018 22:00:00 (CEST)Figari, France (7780): visibility: 14.08.2018 22:00:00 - 20.08.2018 22:00:00 (CEST)Figari, France (7780): Quantités de précipitations: 14.08.2018 22:00:00 - 20.08.2018 22:00:00 (CEST)
Date & Time tt [°C] td [°C] tt 5cm [°C] ff [km/h] ff [knt] fx [km/h] fx [knt] dd ppp [hPa] vv [km] rr [mm]
20.08.2018 22:00:00 21,9 19,1 15,6 4 2 9 5 NNE 1014,8 18 0,0
20.08.2018 21:00:00 22,7 19,3 16,5 5 3 9 5 NNE 1014,7 23 0,0
20.08.2018 20:00:00 26,7 19,8 20,6 5 3 12 6 SSE 1013,8 31 0,0
20.08.2018 19:00:00 28,7 20,7 27,7 5 3 24 13 SSE 1012,9 35 0,0
20.08.2018 18:00:00 29,0 20,7 27,1 16 9 28 15 SW 1012,9 42 0,0
20.08.2018 17:00:00 31,6 22,6 31,2 15 8 26 14 SSW 1013,5 32 0,0
20.08.2018 16:00:00 29,5 22,2 29,9 18 10 27 15 W 1013,2 23 0,0
20.08.2018 15:00:00 32,2 20,5 28,2 7 4 19 10 SSE 1013,7 38 0,0
20.08.2018 14:00:00 27,0 21,1 23,7 3 2 26 14 SSE 1014,5 31 0,0
20.08.2018 13:00:00 27,3 18,0 24,8 14 8 28 15 SW 1014,8 44 0,0
20.08.2018 12:00:00 30,8 21,3 35,6 15 8 26 14 SW 1014,6 44 0,0
20.08.2018 11:00:00 30,7 20,3 35,7 9 5 19 10 S 1014,6 36 0,0
20.08.2018 10:00:00 28,9 19,2 30,7 6 3 14 8 WSW 1014,4 37 0,0
20.08.2018 09:00:00 26,1 19,2 23,5 3 2 6 4 SE 1014,2 41 0,2
20.08.2018 08:00:00 20,5 19,2 13,3 3 2 6 3 NNE 1014,5 23 0,0
20.08.2018 07:00:00 16,5 15,9 11,1 5 3 8 5 NNE 1014,1 12 0,0
20.08.2018 06:00:00 16,5 15,5 11,1 4 2 5 3 NE 1014,0 14 0,0
20.08.2018 05:00:00 17,5 16,4 12,0 4 2 7 4 N 1014,1 23 0,0
20.08.2018 04:00:00 18,9 17,7 14,2 4 2 6 3 N 1014,4 29 0,0
20.08.2018 03:00:00 19,2 18,0 15,6 3 2 7 4 N 1014,8 34 0,0
20.08.2018 02:00:00 18,8 17,8 13,8 3 2 8 4 ENE 1015,3 35 0,0
20.08.2018 01:00:00 18,5 17,3 13,5 3 1 7 4 N 1015,7 32 0,0
20.08.2018 00:00:00 18,9 17,2 13,7 4 2 9 5 NE 1015,9 44 0,0
19.08.2018 23:00:00 19,8 18,1 14,5 6 3 9 5 NNE 1015,8 41 0,0
19.08.2018 22:00:00 20,6 18,7 14,8 0 0 6 3 N 1015,5 46 0,0
19.08.2018 21:00:00 22,7 19,9 17,2 4 2 8 4 SSW 1015,6 56 0,0
19.08.2018 20:00:00 25,6 20,8 21,5 4 2 18 10 SW 1015,4 60 0,0
19.08.2018 19:00:00 27,3 20,9 25,1 14 7 24 13 S 1015,2 59 0,0
19.08.2018 18:00:00 27,9 19,1 25,9 18 10 29 16 S 1015,4 56 0,0
19.08.2018 17:00:00 30,9 18,3 30,2 9 5 29 16 S 1015,3 59 0,0
19.08.2018 16:00:00 31,9 16,2 33,3 11 6 21 12 ENE 1015,4 50 0,0
19.08.2018 15:00:00 29,7 19,1 31,1 4 2 23 12 WSW 1015,7 47 0,0
19.08.2018 14:00:00 27,6 20,7 21,8 3 2 11 6 SW 1016,3 52 0,0
19.08.2018 13:00:00 25,4 20,9 21,9 9 5 17 9 ENE 1017,1 38 0,2
19.08.2018 12:00:00 27,8 20,4 27,8 8 4 25 14 SW 1017,3 51 0,0
19.08.2018 11:00:00 28,8 19,4 31,9 11 6 21 11 WSW 1016,9 51 0,0
19.08.2018 10:00:00 27,7 20,5 26,4 6 4 13 7 SSW 1017,1 49 0,0
19.08.2018 09:00:00 25,3 19,0 22,5 3 2 6 4 ESE 1016,7 59 0,0
19.08.2018 08:00:00 19,7 18,4 13,3 3 2 7 4 NNE 1016,8 50 0,0
19.08.2018 07:00:00 16,4 15,4 11,7 4 2 8 4 NE 1016,8 31 0,0
19.08.2018 06:00:00 16,6 15,6 11,8 3 2 5 3 NE 1016,4 32 0,0
19.08.2018 05:00:00 17,2 16,2 12,2 5 3 7 4 NNE 1016,5 27 0,0
19.08.2018 04:00:00 17,4 16,4 13,1 3 2 6 3 ENE 1017,0 34 0,0
19.08.2018 03:00:00 17,4 16,3 12,8 0 0 9 5 N 1016,8 41 0,0
19.08.2018 02:00:00 17,6 16,3 12,6 3 2 10 5 NNE 1017,0 36 0,0
19.08.2018 01:00:00 17,5 16,0 12,7 3 2 8 4 E 1017,2 44 0,0
19.08.2018 00:00:00 18,3 16,6 13,2 3 2 7 4 NE 1017,3 45 0,0
18.08.2018 23:00:00 19,5 16,9 14,0 4 2 7 4 NNE 1017,6 56 0,0
18.08.2018 22:00:00 21,1 17,5 16,0 4 2 7 4 NNE 1017,3 60 0,0
18.08.2018 21:00:00 22,5 17,8 17,1 0 0 6 3 N 1016,7 60 0,0
18.08.2018 20:00:00 24,9 17,4 20,7 4 2 9 5 E 1015,9 60 0,0
18.08.2018 19:00:00 26,5 16,7 25,0 8 5 13 7 NW 1015,8 60 0,0
18.08.2018 18:00:00 26,6 15,0 23,0 3 1 35 19 NE 1015,8 60 0,0
18.08.2018 17:00:00 25,3 15,3 23,2 29 16 52 28 W 1016,7 57 0,0
18.08.2018 16:00:00 31,7 16,4 34,1 12 7 30 16 E 1015,6 59 0,0
18.08.2018 15:00:00 31,9 17,4 35,6 15 8 41 22 E 1015,4 60 0,0
18.08.2018 14:00:00 32,2 16,1 36,4 16 9 32 17 ENE 1015,6 55 0,0
18.08.2018 13:00:00 32,2 17,7 36,4 16 9 30 16 E 1016,2 60 0,0
18.08.2018 12:00:00 31,2 18,2 34,9 16 9 31 17 E 1016,3 60 0,0
18.08.2018 11:00:00 29,9 17,0 29,9 13 7 24 13 ENE 1016,6 60 0,0
18.08.2018 10:00:00 29,4 18,2 30,4 12 6 23 12 E 1016,3 60 0,0
18.08.2018 09:00:00 27,2 19,0 21,5 9 5 16 9 ENE 1016,2 55 0,0
18.08.2018 08:00:00 21,6 19,0 13,9 4 2 11 6 NE 1015,7 48 0,0
18.08.2018 07:00:00 17,8 16,7 12,1 2 1 8 4 N 1015,7 46 0,0
18.08.2018 06:00:00 18,2 17,2 12,2 4 2 7 4 N 1015,2 46 0,0
18.08.2018 05:00:00 18,0 16,3 12,6 4 2 10 5 NNE 1015,2 53 0,0
18.08.2018 04:00:00 17,7 16,4 12,6 7 4 9 5 ENE 1015,2 47 0,0
18.08.2018 03:00:00 17,9 16,6 13,0 5 3 7 4 NE 1015,3 39 0,0
18.08.2018 02:00:00 18,4 16,9 13,6 2 1 8 4 NNE 1015,5 42 0,0
18.08.2018 01:00:00 19,5 17,6 13,9 4 2 10 5 N 1015,4 53 0,0
18.08.2018 00:00:00 20,5 18,1 14,6 3 2 9 5 NNE 1015,4 53 0,0
17.08.2018 23:00:00 22,7 18,9 16,5 4 2 11 6 NE 1015,3 58 0,0
17.08.2018 22:00:00 23,9 19,0 19,0 10 5 15 8 NE 1015,2 59 0,0
17.08.2018 21:00:00 25,2 18,9 20,8 9 5 17 9 ENE 1014,7 60 0,0
17.08.2018 20:00:00 27,1 18,7 23,4 11 6 22 12 ENE 1014,2 60 0,0
17.08.2018 19:00:00 28,9 18,1 26,6 8 5 21 12 NE 1013,8 59 0,0
17.08.2018 18:00:00 30,8 16,4 28,9 10 5 26 14 E 1013,4 58 0,0
17.08.2018 17:00:00 32,4 15,0 35,9 13 7 40 22 SSW 1013,7 60 0,0
17.08.2018 16:00:00 32,1 16,4 34,5 6 3 23 12 WSW 1014,1 60 0,0
17.08.2018 15:00:00 32,0 16,3 36,7 7 4 33 18 S 1014,5 60 0,0
17.08.2018 14:00:00 32,8 16,2 37,2 18 10 31 17 SSW 1014,7 60 0,0
17.08.2018 13:00:00 31,9 15,4 35,8 18 10 29 16 SW 1014,7 60 0,0
17.08.2018 12:00:00 30,5 19,5 35,4 19 10 31 17 SSW 1015,0 60 0,0
17.08.2018 11:00:00 30,8 18,5 35,6 11 6 25 13 SSW 1014,9 52 0,0
17.08.2018 10:00:00 29,7 16,1 31,4 5 3 11 6 SSW 1015,0 52 0,0
17.08.2018 09:00:00 25,6 17,5 24,7 3 2 8 5 SW 1015,0 53 0,0
17.08.2018 08:00:00 20,1 18,2 12,4 2 1 7 4 E 1014,8 55 0,0
17.08.2018 07:00:00 15,5 14,9 10,4 3 2 9 5 NNE 1014,7 38 0,0
17.08.2018 06:00:00 15,2 14,4 10,4 6 4 8 5 ENE 1014,3 30 0,0
17.08.2018 05:00:00 15,5 14,7 10,5 5 3 8 4 ENE 1014,2 24 0,0
17.08.2018 04:00:00 15,8 14,8 10,9 3 2 8 4 SE 1014,3 32 0,0
17.08.2018 03:00:00 16,3 15,2 11,4 3 1 8 5 NE 1014,4 38 0,0
17.08.2018 02:00:00 16,9 15,8 11,9 6 3 8 5 NE 1014,5 38 0,0
17.08.2018 01:00:00 17,7 16,6 11,9 5 3 10 5 NNE 1014,6 39 0,0
17.08.2018 00:00:00 18,5 16,8 12,6 8 4 10 5 NNW 1014,4 42 0,0
16.08.2018 23:00:00 20,3 17,7 13,7 3 2 12 7 NE 1014,0 60 0,0
16.08.2018 22:00:00 22,4 18,6 17,5 9 5 13 7 ENE 1014,1 60 0,0
16.08.2018 21:00:00 23,1 20,2 18,7 4 2 8 4 ENE 1013,7 60 0,0
16.08.2018 20:00:00 25,9 19,8 21,5 0 0 8 4 N 1013,3 60 0,0
16.08.2018 19:00:00 25,5 19,4 21,4 5 3 10 5 N 1013,2 60 0,0
16.08.2018 18:00:00 26,5 17,8 23,7 2 1 16 9 SE 1013,9 60 0,0
16.08.2018 17:00:00 27,4 17,6 25,6 11 6 35 19 NE 1013,9 60 0,0
16.08.2018 16:00:00 30,3 18,7 28,5 12 7 29 16 W 1013,8 59 0,0
16.08.2018 15:00:00 29,0 18,1 28,7 9 5 31 17 SW 1014,4 60 0,0
16.08.2018 14:00:00 31,9 18,5 32,6 14 7 29 16 SW 1014,3 39 0,0
16.08.2018 13:00:00 29,9 19,6 28,9 16 8 31 17 SSW 1014,7 60 0,0
16.08.2018 12:00:00 30,9 17,2 32,9 8 4 22 12 S 1014,8 60 0,0
16.08.2018 11:00:00 29,3 16,5 35,3 6 3 11 6 SE 1015,1 55 0,2
16.08.2018 10:00:00 28,3 16,6 31,8 5 3 10 5 ENE 1015,0 60 0,0
16.08.2018 09:00:00 25,2 20,7 23,3 2 1 5 3 NE 1014,9 57 0,0
16.08.2018 08:00:00 20,2 18,9 13,9 4 2 8 4 NE 1014,8 51 0,0
16.08.2018 07:00:00 16,3 15,8 11,3 2 1 8 4 NE 1014,7 21 0,0
16.08.2018 06:00:00 16,0 15,5 11,8 5 3 8 5 NE 1014,6 24 0,0
16.08.2018 05:00:00 16,2 15,7 12,1 2 1 8 4 ENE 1014,7 31 0,0
16.08.2018 04:00:00 16,5 16,0 12,3 5 3 9 5 NE 1014,7 23 0,0
16.08.2018 03:00:00 17,0 16,5 12,5 7 4 9 5 NNE 1014,7 18 0,0
16.08.2018 02:00:00 17,2 16,6 12,6 3 1 8 5 ENE 1015,0 23 0,0
16.08.2018 01:00:00 17,8 17,0 13,9 5 3 11 6 NNE 1014,9 18 0,0
16.08.2018 00:00:00 18,3 17,5 13,5 6 3 8 4 NE 1014,9 14 0,0
15.08.2018 23:00:00 19,7 18,5 14,8 3 1 6 3 NNE 1014,9 13 0,0
15.08.2018 22:00:00 21,4 19,9 16,6 3 2 6 4 N 1014,7 33 0,0
15.08.2018 21:00:00 22,8 21,1 19,3 2 1 10 5 E 1014,2 43 0,0
15.08.2018 20:00:00 23,7 21,8 20,8 6 3 10 5 N 1014,0 42 0,0
15.08.2018 19:00:00 23,6 21,5 21,2 4 2 6 3 E 1013,9 50 0,0
15.08.2018 18:00:00 23,9 21,2 22,3 4 2 22 12 ENE 1014,2 60 0,0
15.08.2018 17:00:00 23,3 21,2 19,7 10 6 24 13 NE 1014,3 35 4,5
15.08.2018 16:00:00 25,1 21,0 20,9 6 3 27 15 S 1014,2 10 0,0
15.08.2018 15:00:00 26,6 20,4 24,9 14 7 28 15 SSW 1014,1 48 0,0
15.08.2018 14:00:00 29,4 18,5 26,8 10 6 24 13 SSW 1014,0 50 0,0
15.08.2018 13:00:00 27,7 15,7 27,0 15 8 32 17 S 1014,1 59 0,0
15.08.2018 12:00:00 27,6 15,9 27,1 15 8 27 15 SSW 1013,9 59 0,0
15.08.2018 11:00:00 29,6 15,7 28,5 8 4 19 10 SSE 1013,7 60 0,0
15.08.2018 10:00:00 27,8 16,7 26,8 9 5 17 9 SSW 1013,4 60 0,0
15.08.2018 09:00:00 24,5 18,0 18,7 5 3 9 5 SE 1013,2 58 0,0
15.08.2018 08:00:00 18,1 16,9 12,8 5 3 8 5 NE 1013,0 46 0,0
15.08.2018 07:00:00 16,5 15,5 11,8 6 3 10 5 NE 1013,0 44 0,0
15.08.2018 06:00:00 17,0 15,7 12,1 7 4 9 5 NNE 1012,3 47 0,0
15.08.2018 05:00:00 17,9 16,1 12,8 0 0 9 5 N 1012,4 55 0,0
15.08.2018 04:00:00 18,6 16,7 13,3 6 4 9 5 NNE 1012,7 54 0,0
15.08.2018 03:00:00 19,4 16,6 14,5 4 2 17 9 NNE 1012,7 57 0,0
15.08.2018 02:00:00 21,2 16,8 14,8 11 6 24 13 ENE 1013,0 60 0,0
15.08.2018 01:00:00 21,5 16,2 15,3 3 1 33 18 NE 1012,9 57 0,0
15.08.2018 00:00:00 23,1 17,3 16,9 15 8 28 15 W 1012,9 58 0,0
14.08.2018 23:00:00 23,3 17,3 18,4 13 7 29 16 W 1012,7 60 0,0
14.08.2018 22:00:00 23,2 17,0 19,1 15 8 36 19 WSW 1012,5 60 0,0

tt = Température de l'air
td = dewpoint
tt 5cm = Température de l'air 5cm
ff = Vitesse du vent
fx = gusts
dd = Direction du vent
ppp = reduced air pressure
vv = visibility
rr = Quantités de précipitations

stations d'obs. à proximité